Theta_e
332 332 331 331 330 331 332 330 328 328 329 330 328 328 328 328 328 328 329 329 327 327 327 327 326 326 325 325 324 323 322 322 321 319 318 320 322 323 323 324 324 324 323 324 325 325 325 325 323 322 322 321 322 322 322 322 323 322 322 321 321 322 321 321 320 321 322 323 321
332 333 332 328 328 330 331 330 329 328 329 329 329 329 329 329 329 328 329 329 327 328 328 328 326 326 325 325 324 323 322 322 321 320 319 321 322 323 323 323 324 323 323 323 324 325 325 325 323 322 321 321 322 322 322 322 322 322 322 321 321 321 321 320 320 320 321 321 321
332 333 333 332 332 331 331 331 330 329 329 329 330 330 330 329 329 329 329 329 328 328 328 327 326 326 325 325 324 324 323 323 321 321 320 320 321 322 323 323 323 323 322 323 323 324 324 324 322 321 320 321 322 322 321 322 322 322 322 322 321 321 321 320 319 319 320 320 320
332 333 333 332 332 332 331 331 330 330 329 329 330 330 330 330 329 330 330 330 328 328 327 327 326 325 325 324 324 323 323 321 321 320 320 320 320 322 322 322 323 323 323 323 323 323 324 324 322 321 321 321 322 322 321 321 321 321 322 322 322 322 321 319 319 319 319 319 320
332 333 332 332 332 332 331 331 330 329 329 329 329 330 330 331 329 330 330 330 329 328 327 327 326 325 325 324 324 323 322 322 318 319 320 319 320 321 322 322 323 323 323 323 323 323 323 323 322 321 321 321 322 322 322 322 321 321 321 321 321 321 320 319 318 318 318 318 319
332 332 332 332 332 331 331 330 329 329 329 329 329 330 330 330 330 330 330 330 330 330 328 325 324 324 323 324 324 323 322 323 320 319 320 319 320 321 322 322 322 322 322 322 323 323 323 323 322 321 321 321 322 322 322 322 321 320 319 319 319 319 318 318 317 317 317 317 318
331 331 332 333 331 331 330 330 329 329 329 329 329 330 330 330 330 330 330 331 331 330 328 323 323 324 324 324 323 323 322 322 320 320 320 319 320 320 321 321 322 322 322 322 322 322 323 322 321 320 319 318 320 322 322 322 320 319 318 318 318 318 318 316 317 317 317 317 317
331 331 331 332 331 331 331 331 330 330 329 329 329 330 330 330 330 330 330 331 330 329 327 325 325 325 325 323 323 322 322 322 320 319 319 319 320 320 321 321 322 322 322 322 322 322 322 322 321 320 320 320 320 322 322 321 320 318 318 317 318 317 316 316 316 316 317 317 317
330 330 331 331 331 331 331 331 331 330 330 330 330 330 330 330 329 330 330 329 328 328 328 327 326 325 324 323 322 322 322 322 320 319 319 319 320 320 320 321 322 322 322 322 322 322 322 322 321 321 320 320 320 321 321 321 319 318 318 317 317 317 317 316 317 317 317 316 317
328 329 330 330 331 331 331 331 331 331 331 330 330 330 329 326 328 329 329 328 327 327 328 328 326 325 324 323 322 323 322 322 320 319 318 318 319 320 320 321 321 321 322 321 321 322 322 321 321 321 321 321 321 321 321 320 319 318 318 317 317 317 316 317 317 317 317 317 317
328 328 330 331 331 331 331 331 330 330 330 330 330 330 329 327 329 329 329 327 327 327 327 327 326 325 324 323 323 323 323 322 320 319 319 318 319 319 321 321 321 321 321 321 321 321 321 321 320 321 321 321 320 320 320 320 319 319 319 319 318 317 317 317 317 318 318 318 318
328 329 330 332 332 331 331 330 330 329 329 330 330 330 330 330 330 329 328 327 327 327 327 327 327 326 324 323 322 322 322 322 320 319 318 319 319 320 321 321 321 322 322 321 321 320 320 320 320 320 320 320 319 319 319 319 320 320 320 319 318 317 317 316 317 318 319 319 319
328 329 331 332 332 332 331 330 330 329 329 330 331 330 330 329 329 327 326 326 327 326 327 326 326 326 325 323 323 323 323 322 320 319 318 319 319 320 321 321 321 322 322 322 321 321 320 320 320 319 319 319 319 319 319 319 320 319 319 319 318 318 317 317 317 318 319 320 319
329 330 330 331 331 331 331 330 329 329 328 329 330 330 329 328 326 326 325 326 326 326 326 325 325 325 324 324 324 324 323 321 320 319 319 319 319 320 321 321 321 322 321 321 321 321 320 320 319 319 319 319 319 319 319 320 320 319 319 318 318 318 318 317 318 318 319 320 318
329 330 331 331 331 330 330 329 328 328 328 330 330 329 328 327 325 324 325 325 325 326 326 326 325 325 325 325 324 324 323 321 319 318 318 318 319 320 320 321 321 321 321 321 320 321 320 320 319 319 319 318 319 319 320 319 319 320 320 320 320 319 318 318 318 319 319 320 319
329 330 330 330 330 329 329 328 327 328 329 330 330 329 327 327 325 324 324 324 324 325 325 325 325 325 325 324 324 324 323 320 319 318 318 318 319 320 320 321 320 321 321 320 320 320 320 320 320 320 319 318 318 319 319 320 320 321 321 321 321 321 320 319 319 320 319 319 319
330 330 329 330 328 328 327 327 327 328 329 330 329 327 326 325 324 323 322 322 324 324 325 325 325 325 324 323 323 323 322 320 319 318 318 319 319 320 320 320 320 320 320 320 320 320 320 319 319 320 320 319 318 319 319 320 320 320 321 321 322 321 320 319 320 320 320 319 318
330 330 329 329 329 328 327 327 327 328 329 330 328 326 326 324 324 323 322 322 323 324 324 324 325 325 324 324 323 323 322 321 319 318 318 319 319 320 320 320 320 320 320 320 320 320 319 319 319 320 320 320 319 318 319 320 320 320 320 321 321 321 321 320 320 320 319 319 318
329 329 329 329 328 328 328 327 327 328 329 329 328 327 326 325 325 323 322 323 323 324 324 324 324 324 324 323 323 322 321 321 320 319 319 319 319 319 320 320 320 320 320 320 320 320 319 319 319 319 320 321 319 318 319 319 319 319 319 319 320 320 320 320 320 319 319 318 318
329 329 329 329 329 329 329 327 328 328 328 328 328 327 326 325 325 324 323 323 323 324 324 324 323 323 323 323 323 322 322 322 321 319 319 319 319 319 319 319 320 320 320 320 319 319 319 319 318 318 319 321 320 319 318 318 318 318 318 319 319 319 319 319 319 319 319 319 319
327 328 329 329 330 329 329 329 329 328 328 327 327 326 325 325 324 323 323 323 323 324 324 323 323 322 322 322 322 322 323 323 322 321 319 319 319 319 319 319 319 320 320 319 319 319 319 319 318 318 318 319 319 319 318 318 317 318 318 318 319 319 319 319 319 319 319 319 320
327 328 329 330 330 329 330 330 329 329 328 327 326 325 325 324 324 324 323 323 323 323 323 323 323 323 323 322 322 322 323 323 323 322 321 320 320 320 320 319 319 319 319 319 319 319 319 318 318 318 318 318 319 319 318 318 317 317 318 318 318 318 318 319 319 319 319 319 320
327 328 329 330 330 329 329 330 329 328 327 326 325 325 324 324 324 323 323 323 322 323 323 323 323 323 323 323 323 323 323 323 323 322 321 321 320 320 320 319 319 319 319 319 319 319 319 318 318 318 317 318 318 319 319 319 318 317 318 318 318 318 318 318 319 319 320 320 320
328 328 329 330 330 330 330 330 329 327 326 325 325 324 324 323 323 323 323 323 322 323 322 322 323 323 323 323 323 323 323 323 322 322 322 321 321 320 320 319 319 319 319 319 318 317 316 317 318 317 317 317 317 318 319 320 320 319 319 319 318 318 318 319 319 320 320 320 320
327 327 328 330 329 329 329 330 328 326 325 325 324 324 324 323 323 323 323 323 323 322 322 322 323 323 324 323 323 324 323 323 323 322 321 321 321 320 320 319 319 319 319 318 311 308 308 311 314 316 318 317 318 318 319 320 321 321 320 319 319 319 319 319 319 320 321 321 322
326 326 326 327 328 327 326 326 325 325 325 324 324 323 323 323 322 322 322 322 322 322 322 322 322 321 321 323 323 324 323 323 323 323 322 321 320 320 320 319 319 320 319 314 306 303 304 305 307 311 315 319 318 318 318 319 320 321 320 320 320 319 319 319 320 321 321 322 323
325 325 325 326 325 325 324 324 324 324 324 323 323 323 323 323 322 322 321 321 322 322 322 322 322 319 318 323 323 323 323 323 323 323 323 322 321 320 320 319 320 320 317 308 303 301 301 303 304 307 312 320 320 319 319 320 321 320 320 319 320 320 320 320 320 320 321 322 322
324 324 324 325 325 324 324 323 323 323 323 323 323 323 323 322 322 321 321 321 321 321 321 321 321 320 321 322 322 322 323 323 323 323 322 322 322 321 320 320 321 318 312 303 301 300 300 301 301 303 307 314 320 321 320 320 320 321 321 321 322 321 321 320 320 320 320 319 319
323 323 324 324 323 323 323 323 323 322 322 322 323 322 322 322 321 320 320 320 321 321 320 321 320 321 322 321 322 322 322 323 323 322 322 322 321 321 321 321 320 313 304 298 300 301 300 300 299 299 301 306 317 321 322 321 320 320 320 319 318 317 316 316 314 314 314 315 315
322 322 322 322 322 322 322 322 322 322 322 322 322 322 321 321 320 320 320 320 320 320 320 321 320 321 321 322 322 322 323 323 322 322 321 321 321 321 320 319 318 311 303 297 300 300 300 300 299 298 299 300 311 318 320 320 319 316 314 312 310 310 310 310 310 310 310 311 311
321 321 321 321 320 321 321 322 322 322 321 321 321 321 321 320 320 320 320 320 320 319 319 320 321 321 322 322 322 322 322 322 322 321 321 321 319 319 320 320 317 309 302 297 298 299 298 299 299 299 298 298 307 315 319 316 312 308 306 305 305 305 306 306 306 306 306 307 308
321 321 321 320 320 320 320 321 321 321 321 321 320 320 320 319 320 320 320 320 320 320 320 320 320 321 321 322 322 322 322 321 321 320 320 320 320 320 319 317 314 307 301 297 297 297 297 297 297 297 297 297 304 311 313 305 304 303 302 301 300 301 301 301 301 302 303 304 305
321 321 320 320 319 320 320 320 320 320 320 320 320 320 319 319 320 320 320 319 320 320 320 320 320 320 320 320 321 321 320 320 319 318 318 318 317 314 311 308 307 302 297 295 296 296 295 295 295 295 295 297 303 306 305 303 301 300 298 298 297 297 297 297 298 298 299 300 301
321 320 320 319 319 318 319 319 319 320 319 319 319 319 319 319 319 319 319 318 319 319 319 319 319 319 319 318 318 317 317 317 318 318 317 314 310 307 305 303 301 296 292 293 294 295 295 295 295 295 296 296 302 303 302 300 299 297 296 295 294 294 295 295 295 296 296 297 299
320 319 319 318 318 318 318 318 319 319 319 318 318 318 318 318 316 314 311 310 309 309 309 309 309 309 309 310 311 311 311 312 313 311 309 306 304 302 300 299 297 294 292 292 294 294 295 295 296 297 297 299 302 302 300 298 297 295 294 293 292 292 292 292 292 293 293 294 295
319 319 318 318 318 318 318 318 318 318 319 318 317 316 314 312 311 309 308 305 305 305 305 304 304 304 304 304 305 306 306 307 307 306 304 303 301 300 298 297 296 294 292 292 294 295 295 296 296 297 298 301 302 301 299 297 296 294 293 291 290 290 289 289 289 290 290 291 291
319 318 318 318 318 317 317 317 318 318 317 315 313 311 309 309 308 308 306 304 304 303 302 302 301 301 300 300 300 301 302 304 304 303 302 301 300 298 297 296 295 294 292 293 293 295 295 296 296 297 299 301 301 299 297 296 294 292 291 289 289 288 287 287 287 287 287 287 288
319 319 318 318 317 317 317 317 317 316 314 311 309 308 308 307 307 306 304 302 302 301 300 299 299 298 298 297 296 297 297 298 298 299 299 298 297 297 295 294 294 293 292 292 293 294 294 295 296 296 298 299 298 297 295 294 292 290 288 287 286 286 286 286 285 285 285 285 286
319 319 319 318 317 317 317 317 316 313 311 307 306 306 306 306 305 304 303 301 301 300 299 298 297 296 295 294 294 293 293 293 294 294 294 294 294 294 293 293 293 292 291 291 292 293 293 294 294 295 295 297 297 295 293 292 290 288 287 286 285 285 285 285 284 284 284 284 285
319 319 319 318 318 318 318 317 314 311 308 306 305 304 304 304 303 303 302 301 300 300 298 297 296 295 294 292 292 291 290 290 290 290 290 291 291 291 291 291 291 291 291 290 291 292 293 293 293 294 294 295 295 294 292 290 289 287 286 285 284 284 283 283 283 283 283 283 284
320 319 318 318 318 318 317 315 311 308 306 304 304 303 302 301 301 301 301 301 300 299 298 296 295 294 293 291 290 289 288 288 288 288 288 288 288 289 289 290 290 290 290 290 290 291 292 292 293 293 293 294 294 293 292 290 288 286 285 284 284 283 282 282 282 282 282 282 282
Wind_Speed
12 11 10 10 10 9 9 9 9 9 9 9 9 9 9 10 10 9 9 9 8 8 9 9 10 11 12 15 17 17 18 18 19 18 17 15 14 15 16 15 14 13 12 11 12 13 14 15 13 11 10 11 11 11 11 11 13 13 13 12 11 11 12 13 14 16 18 18 14
14 13 12 10 10 9 8 8 8 8 8 8 8 9 10 10 9 9 9 10 9 9 9 9 11 12 14 16 17 17 17 18 19 18 17 15 15 15 15 14 14 14 13 13 12 12 12 14 13 12 11 11 11 11 11 12 13 14 14 15 12 11 11 12 13 16 18 17 15
14 14 13 12 12 10 9 9 9 9 9 8 8 9 9 9 9 9 9 9 10 9 9 9 11 13 15 17 17 17 17 17 19 18 16 14 15 15 14 13 14 15 14 13 12 12 12 14 13 12 11 11 11 11 11 13 13 14 14 15 11 10 10 10 12 12 12 12 13
15 14 14 14 15 14 12 9 10 10 10 8 9 8 8 8 8 8 9 10 10 10 9 10 11 13 14 16 17 17 16 17 19 18 16 14 15 15 15 15 15 16 16 15 14 13 13 15 12 11 12 13 13 12 11 12 13 13 12 12 10 10 10 10 10 10 9 9 10
15 14 13 14 16 15 13 11 11 10 9 8 8 8 8 7 7 8 9 10 9 9 10 12 12 12 13 16 18 18 18 18 18 17 16 16 15 16 16 17 17 17 16 16 15 14 13 15 11 10 12 13 12 12 12 14 14 13 11 9 9 9 10 10 10 9 7 7 8
14 14 14 14 15 14 12 10 11 10 9 8 9 9 8 7 7 8 9 10 10 11 12 13 12 12 14 16 18 18 18 18 17 17 17 17 16 16 17 18 18 17 17 17 17 15 14 12 9 9 11 12 11 12 14 16 15 14 12 10 10 10 10 11 10 8 8 8 9
14 14 14 14 14 13 11 10 10 10 10 9 10 11 10 9 9 9 10 10 10 11 11 10 11 12 14 16 16 17 17 17 17 18 19 18 17 18 18 18 19 18 18 18 18 16 13 11 8 8 10 11 10 12 15 16 15 14 13 12 11 11 11 13 10 9 9 11 12
14 14 14 13 13 13 12 12 11 10 10 9 11 12 12 11 11 11 11 10 10 10 9 9 12 14 15 16 16 16 17 17 17 18 19 18 18 19 19 19 19 19 19 18 18 16 13 10 8 8 10 10 10 12 15 18 18 17 16 15 13 12 12 13 11 10 10 12 13
13 13 13 12 12 12 12 12 12 11 11 10 11 12 12 12 12 12 11 10 10 10 10 10 13 15 16 17 17 17 16 17 18 19 19 19 19 19 19 18 19 19 18 18 19 18 15 10 8 9 9 9 10 12 15 19 20 19 18 15 14 13 13 13 14 13 12 12 13
13 13 13 12 12 12 12 13 12 12 12 11 11 12 12 12 12 12 11 10 10 10 11 11 14 15 16 17 17 16 16 16 18 19 19 19 19 19 19 17 18 18 18 18 18 18 16 10 10 10 11 11 12 14 16 19 20 20 18 13 15 16 17 16 16 15 14 13 13
13 13 12 11 13 13 12 13 11 11 11 10 11 11 12 12 12 11 11 10 11 11 12 12 14 15 15 16 16 16 15 15 17 19 20 19 19 19 19 17 18 18 18 18 18 17 15 12 12 14 15 14 15 16 17 19 19 19 18 14 16 18 19 19 17 15 14 13 13
13 13 12 12 13 13 13 12 11 10 10 11 11 11 11 11 12 12 11 11 12 13 13 14 14 14 14 13 15 15 15 16 18 19 20 20 20 20 19 18 18 18 18 18 18 16 15 14 15 16 17 17 15 15 17 20 19 19 18 17 18 19 20 20 19 16 13 13 12
13 13 13 13 13 13 13 12 10 10 10 11 11 10 10 10 11 11 12 12 13 13 13 13 14 14 13 12 14 14 15 16 18 19 19 20 20 20 19 18 18 18 18 18 18 17 16 16 17 18 19 19 16 16 18 20 20 19 19 19 19 20 20 22 20 18 15 13 12
13 13 13 13 13 13 12 11 10 10 10 12 11 10 9 10 10 11 11 12 13 12 12 12 12 12 12 13 14 14 15 16 18 19 20 20 19 20 19 18 18 18 17 17 18 19 20 19 19 20 20 20 19 18 19 21 20 19 18 18 19 20 21 21 21 19 17 15 12
13 13 13 13 12 12 11 11 9 9 10 12 11 10 9 9 9 10 11 12 13 12 11 11 10 11 12 14 14 15 16 17 19 20 21 21 21 20 20 18 18 18 17 16 18 19 21 21 21 20 21 22 21 20 20 20 19 17 16 16 17 19 20 21 21 20 18 15 13
13 13 13 12 12 11 10 10 9 9 10 11 10 9 8 8 9 9 10 11 11 11 10 11 10 10 11 13 14 15 16 17 20 21 21 22 22 21 20 19 19 18 17 17 18 18 19 20 19 19 19 21 21 20 20 19 17 16 16 16 17 19 20 21 21 20 18 15 13
13 12 12 12 12 12 11 11 9 9 10 11 10 9 9 8 8 9 9 10 9 10 10 11 10 10 11 12 13 14 15 17 19 21 21 22 23 22 21 20 19 19 18 18 18 18 18 18 17 16 17 19 20 20 19 17 16 16 17 19 20 21 21 21 20 19 17 14 13
12 12 12 13 13 13 13 12 10 10 10 11 10 9 9 9 9 9 9 10 9 10 11 12 11 11 12 14 13 13 14 17 19 20 21 22 23 23 22 21 20 19 18 18 18 18 18 18 17 15 14 16 18 19 18 17 16 17 18 21 21 21 21 20 19 17 15 13 12
12 12 12 13 13 13 13 12 11 11 11 11 10 10 10 11 10 10 9 10 10 11 12 12 12 12 13 15 15 13 13 16 20 21 21 21 22 22 22 21 20 19 19 18 18 18 18 18 17 16 14 13 16 17 18 17 16 16 17 19 19 19 18 17 16 15 13 12 11
13 13 13 13 13 13 13 12 12 11 11 10 11 11 11 11 11 11 11 10 10 11 12 12 12 13 14 15 16 15 14 14 19 21 21 20 21 21 22 21 20 19 19 18 18 18 18 17 17 17 16 14 15 16 17 17 15 15 15 15 15 15 15 14 14 13 12 11 10
13 13 12 12 13 13 13 12 12 11 11 10 12 12 12 12 11 12 12 12 11 11 12 11 12 13 14 15 16 16 14 12 17 19 20 19 20 21 21 21 20 19 18 17 17 17 17 17 17 17 17 16 15 15 15 15 14 14 13 12 12 12 12 12 12 11 11 10 10
13 13 12 12 12 12 12 12 11 11 11 11 12 12 12 12 12 12 12 12 12 12 11 11 12 13 15 15 16 16 14 11 14 17 18 18 19 19 20 20 19 18 17 17 17 17 17 17 17 17 17 17 16 14 13 13 13 13 13 12 12 11 11 11 11 10 10 10 10
13 13 12 11 11 11 11 11 11 11 11 11 12 12 12 12 12 12 12 13 12 12 12 11 11 13 14 15 15 15 14 13 14 15 16 18 18 19 19 19 19 18 17 15 16 16 17 17 17 17 17 16 16 14 12 11 11 12 13 13 12 11 11 11 11 10 10 10 10
12 12 11 9 10 10 10 10 11 11 11 12 12 13 12 12 12 12 12 13 13 13 12 10 11 12 14 14 15 15 15 15 15 16 17 18 18 19 19 19 18 17 15 13 13 14 15 14 15 16 15 15 15 14 12 10 10 10 11 12 11 11 11 11 11 11 11 11 12
11 10 9 8 8 8 9 9 10 11 11 12 12 13 13 13 13 13 13 13 14 13 13 12 11 12 13 14 15 16 16 17 17 18 18 19 19 18 18 16 15 14 12 11 12 13 14 13 13 14 14 14 13 13 13 10 9 8 8 8 9 9 9 10 10 11 11 13 14
10 9 9 8 8 8 8 8 9 10 11 12 12 13 13 13 13 13 14 14 14 14 14 13 12 11 11 13 15 16 16 16 17 18 19 19 20 19 17 14 13 12 11 11 13 14 14 13 12 13 13 13 13 13 12 10 8 7 6 5 5 5 6 7 9 11 13 13 13
9 9 9 9 8 8 8 9 9 10 11 11 12 12 13 13 12 13 14 14 14 14 13 12 11 10 10 12 15 16 15 15 16 17 18 19 20 20 17 14 13 11 11 12 14 14 13 12 12 13 14 14 13 12 11 8 7 6 5 5 5 6 7 8 11 12 12 11 8
8 8 9 9 9 9 9 9 10 11 11 11 12 12 12 13 13 13 14 14 14 13 12 11 10 9 8 9 13 14 14 14 14 15 15 16 17 18 16 13 12 11 11 14 15 14 13 11 11 11 12 13 13 12 11 9 8 7 6 7 7 7 8 9 8 7 5 5 7
8 8 8 8 9 9 9 9 10 11 11 11 11 12 12 12 13 13 14 14 14 13 11 9 8 7 7 9 10 12 13 13 12 12 12 13 14 15 14 13 12 12 13 16 16 14 12 11 9 9 9 10 11 11 10 10 9 8 6 4 2 1 1 4 5 5 5 6 8
8 8 8 8 9 9 9 9 10 10 10 10 11 11 11 12 12 13 13 14 14 12 10 8 8 9 10 11 11 10 11 11 10 10 11 13 13 13 13 12 12 12 14 17 16 14 12 11 9 8 7 6 7 8 9 8 6 4 4 5 5 6 8 9 9 8 8 7 7
9 8 9 9 9 9 10 10 10 10 10 10 11 11 11 11 12 12 12 13 12 11 9 10 12 13 14 13 11 11 11 11 10 10 11 13 13 13 14 14 13 12 14 16 16 14 12 10 9 8 7 5 4 5 5 6 7 8 8 8 9 9 10 10 10 10 9 9 8
9 9 9 9 9 10 10 11 11 11 11 10 11 11 11 11 11 11 10 10 10 10 10 11 13 14 15 14 13 12 11 11 11 11 11 12 12 12 12 12 11 11 12 15 15 14 12 10 8 7 7 6 4 6 8 11 11 11 11 12 13 13 12 11 10 11 11 10 9
10 10 10 10 10 10 10 10 10 11 10 10 10 10 11 11 10 10 10 9 10 11 12 13 14 15 15 15 13 12 11 11 12 11 11 11 12 12 11 10 8 8 9 12 15 14 13 12 11 10 10 10 11 12 12 12 11 11 12 13 14 15 15 14 13 12 12 11 10
11 11 11 11 11 10 10 10 10 10 10 11 11 11 11 11 10 9 8 7 6 7 8 7 8 8 9 9 8 8 8 9 10 11 12 13 13 13 12 9 7 6 7 10 14 16 16 16 16 16 15 14 13 13 13 13 12 13 13 14 15 15 15 15 15 14 13 12 10
11 12 12 12 11 11 11 11 11 11 11 12 12 12 12 12 13 13 13 13 13 13 12 12 11 10 10 9 10 11 11 12 13 14 15 15 15 15 13 11 9 9 9 10 14 17 18 19 19 18 16 14 13 13 14 15 15 15 16 16 16 17 17 17 16 15 14 12 12
12 12 12 12 12 12 12 11 12 12 12 13 13 14 14 15 15 15 15 16 17 17 16 16 15 15 15 15 14 14 14 15 16 16 16 15 16 16 15 13 12 11 11 10 14 18 20 21 20 18 15 13 12 13 13 13 14 15 16 17 18 18 18 18 17 15 14 13 12
13 13 13 13 13 13 12 12 12 13 14 15 15 15 16 16 16 15 15 16 17 17 17 16 16 16 16 16 16 16 15 15 16 16 16 16 16 16 16 15 14 13 12 12 13 16 19 21 20 18 16 13 13 13 13 12 12 13 15 17 18 18 17 16 16 16 16 15 14
13 13 14 14 14 14 13 13 13 14 16 16 16 15 15 15 15 15 14 15 16 17 17 17 17 17 17 17 17 17 18 17 17 17 17 16 16 16 16 16 15 14 13 15 14 14 16 18 19 18 16 14 14 13 12 12 12 13 14 15 15 16 15 13 13 14 16 19 19
14 14 14 15 14 14 14 14 15 16 17 17 15 15 15 15 14 14 14 14 16 16 17 17 17 17 16 17 18 18 19 19 19 19 19 18 17 17 17 17 16 15 15 17 16 15 16 17 19 19 17 15 14 13 12 12 13 14 14 14 14 14 14 13 12 13 16 20 23
14 15 15 15 15 15 15 16 17 17 17 16 16 15 15 15 15 14 14 15 16 16 17 17 18 17 16 17 18 19 20 20 20 20 19 19 18 18 18 17 17 17 17 19 18 17 17 18 18 18 17 14 13 12 12 12 14 14 14 13 12 12 13 12 12 12 14 17 20
15 15 16 15 15 15 16 18 19 18 17 16 16 15 14 14 14 14 15 15 16 16 16 16 18 18 17 17 18 19 21 21 20 20 20 19 19 19 18 18 18 18 18 19 19 18 18 17 17 17 15 13 13 12 11 12 13 14 14 13 12 12 11 11 11 12 13 14 15
Wind_Direction
192 191 191 192 189 186 183 180 179 179 180 181 184 184 184 185 185 184 181 175 177 185 192 190 187 185 181 178 179 180 180 180 181 182 183 179 180 179 176 174 172 170 169 172 175 170 162 156 156 158 161 164 162 159 156 153 152 153 156 162 166 170 174 181 186 188 192 201 213
192 191 189 187 183 180 179 178 179 182 185 186 188 188 187 185 185 186 185 179 175 181 189 193 188 184 180 177 179 180 180 179 179 180 180 177 178 176 175 175 174 172 170 172 175 173 167 160 157 158 161 164 162 159 156 154 150 151 156 164 167 172 180 190 196 195 195 201 213
191 189 186 183 181 178 178 182 181 184 188 192 193 192 188 185 184 184 183 183 175 177 185 194 188 182 178 176 178 179 179 179 178 178 177 175 176 175 175 175 174 172 170 172 176 176 171 165 160 159 161 165 164 160 154 151 147 149 156 165 168 175 184 196 203 202 201 204 215
190 187 185 184 183 181 182 187 185 187 190 195 196 194 191 188 185 181 179 181 175 176 183 193 188 181 176 175 178 179 179 179 177 176 175 173 175 176 177 176 174 173 172 173 176 176 172 168 163 160 162 164 165 162 155 150 148 149 155 165 169 177 187 198 204 206 207 210 217
189 187 185 185 185 184 185 192 190 190 192 197 198 195 191 190 188 182 178 178 174 175 180 190 188 182 177 177 178 179 179 178 176 174 173 173 175 177 178 177 175 173 172 173 175 174 170 166 161 159 161 164 166 163 156 150 149 151 155 164 171 180 189 198 203 207 210 213 218
188 186 186 187 187 187 189 194 195 194 194 197 201 198 193 188 190 188 183 179 176 174 177 186 188 182 176 177 178 178 178 178 176 174 174 174 176 177 178 177 175 174 172 172 173 171 168 162 156 156 159 162 165 162 157 151 152 154 159 166 173 181 189 198 202 206 210 213 216
186 186 186 188 187 188 190 194 196 197 197 197 201 202 199 193 193 193 191 185 178 174 173 179 186 181 176 176 177 178 178 177 176 175 174 175 177 178 177 175 174 173 171 170 170 169 167 161 152 151 155 160 164 162 159 156 156 159 163 169 173 180 187 195 200 205 209 212 214
185 185 186 186 187 189 190 192 196 198 198 197 199 202 202 199 197 198 197 192 185 177 174 175 184 181 177 177 178 179 179 177 176 175 175 176 178 177 176 173 173 172 170 168 169 168 166 159 151 149 152 159 162 162 161 160 160 163 167 172 173 179 186 193 197 201 205 209 210
184 184 185 185 187 188 190 192 197 200 200 199 199 200 201 203 201 200 200 199 193 186 181 180 184 182 180 180 180 181 180 177 176 176 176 177 178 177 174 172 171 171 170 169 168 167 165 157 152 150 153 159 164 165 164 163 164 166 169 173 174 179 186 194 197 198 200 204 204
183 184 184 185 187 188 190 192 198 202 203 202 199 199 200 203 203 202 201 202 200 195 189 185 185 183 182 183 182 182 181 176 175 176 178 179 178 176 174 171 170 169 169 168 168 167 165 158 154 153 156 161 167 168 168 167 168 169 172 174 177 181 187 196 198 198 198 199 198
183 182 183 184 185 187 189 191 196 202 204 203 199 199 199 202 204 204 203 203 204 201 196 190 187 184 183 184 183 183 181 176 175 176 177 179 177 175 173 171 170 169 168 168 167 166 166 162 158 158 160 164 169 172 173 173 173 174 176 177 180 184 190 198 201 200 198 196 193
182 181 182 184 184 185 187 189 192 198 203 203 199 198 200 203 206 206 205 205 207 205 200 193 188 185 184 184 183 183 182 177 176 176 176 177 175 174 172 171 170 169 168 168 167 167 167 167 164 163 164 166 170 174 177 178 179 180 181 181 183 188 194 200 203 204 201 195 190
180 181 183 184 184 184 185 187 191 196 201 202 198 196 198 203 207 208 206 206 207 206 202 195 189 186 184 184 183 183 181 176 174 174 174 174 173 172 171 170 170 169 169 168 168 169 169 169 169 168 168 169 172 176 179 181 182 184 185 185 186 190 196 201 204 206 205 200 192
181 183 184 183 184 185 186 187 190 195 199 200 195 193 195 201 206 207 207 206 205 203 200 195 191 188 186 183 182 181 178 172 170 170 171 172 172 171 171 170 170 169 168 168 169 170 170 170 172 173 173 172 174 177 180 182 183 184 186 188 190 192 196 201 205 208 209 207 200
183 184 184 183 184 186 188 188 190 195 198 197 190 187 190 199 201 203 203 204 202 199 196 192 191 189 186 182 181 178 173 167 167 168 169 170 171 171 171 171 170 169 168 167 168 170 170 170 173 175 177 176 176 177 179 182 182 183 186 191 194 195 196 200 205 208 211 212 207
184 183 181 181 185 188 189 188 190 194 196 193 184 181 185 195 195 196 198 199 197 196 193 190 190 187 183 178 177 174 170 165 165 166 168 170 171 172 172 172 170 169 168 167 169 169 170 169 173 177 179 178 177 177 178 179 181 183 187 193 198 198 197 198 204 209 212 212 210
182 181 181 183 188 190 191 189 190 193 193 188 179 178 183 191 190 191 192 193 192 192 191 189 187 183 178 173 172 169 166 164 165 167 168 170 172 173 174 173 171 170 169 169 170 170 169 169 172 177 180 179 178 177 176 176 180 185 190 195 199 200 199 197 203 208 211 212 211
180 182 184 187 191 192 191 189 189 190 190 184 178 179 184 189 186 186 187 188 187 188 188 187 183 179 174 170 169 167 164 162 164 167 169 171 173 174 175 175 173 171 171 172 172 171 170 169 172 177 182 183 181 178 176 177 184 189 192 194 197 198 198 197 202 206 210 211 211
181 184 188 191 192 192 190 187 187 187 186 182 180 182 186 187 184 182 183 184 184 184 183 181 179 175 171 168 168 166 163 161 164 166 168 171 173 175 176 176 174 173 174 174 174 173 171 170 174 178 184 189 186 182 180 183 190 193 193 192 194 195 196 198 201 205 209 212 214
182 186 189 191 192 191 189 186 185 184 183 182 182 184 185 183 181 179 179 180 180 179 178 176 175 172 169 167 167 166 163 159 162 165 168 171 174 176 177 177 176 175 175 176 176 175 174 173 177 181 186 192 191 189 188 191 195 195 194 193 194 196 198 200 203 208 212 216 219
182 185 189 191 191 190 187 184 182 181 181 182 184 184 182 178 178 177 177 176 175 174 173 173 172 169 168 167 168 167 163 155 159 162 166 170 173 176 177 177 176 176 176 176 176 176 175 176 180 184 188 192 194 195 195 197 197 197 196 196 197 199 202 204 207 211 216 221 225
180 182 186 188 187 185 183 180 179 180 181 183 184 182 179 176 175 175 174 172 172 170 169 168 168 167 166 166 167 166 162 154 155 159 164 168 171 173 175 175 176 175 175 176 176 176 177 178 182 186 189 192 194 197 199 199 196 195 196 198 200 203 205 207 210 214 219 224 228
175 177 179 183 181 180 178 177 177 180 182 184 182 180 178 175 174 172 171 170 170 169 166 163 164 164 163 163 162 161 159 155 156 158 162 165 166 168 170 173 174 175 175 175 175 176 177 179 182 186 189 191 192 195 198 198 193 192 194 197 199 202 205 208 210 213 217 222 228
170 170 171 174 176 177 177 177 177 180 183 183 181 179 176 173 171 170 170 170 171 169 166 161 161 160 158 156 156 157 157 157 159 160 160 160 160 163 166 170 172 173 173 174 174 175 176 179 182 185 188 189 191 193 196 194 191 190 191 194 197 200 204 208 210 212 215 219 224
165 164 165 168 174 178 180 180 180 182 182 181 179 177 175 172 171 170 170 171 172 170 166 162 159 157 154 152 152 154 155 156 157 158 157 155 156 159 163 168 170 171 171 171 171 172 173 178 180 182 184 186 189 193 195 196 194 193 192 194 198 201 205 209 212 214 217 220 222
162 162 163 168 174 179 183 185 184 183 181 178 177 176 174 172 171 171 171 172 172 170 167 163 160 157 153 150 150 151 152 152 153 152 152 151 155 159 163 166 168 169 169 167 167 168 171 176 177 177 179 182 186 191 196 198 199 200 202 205 208 210 212 216 219 219 219 220 218
159 161 164 167 172 178 183 186 184 182 179 176 176 175 174 172 172 172 173 173 173 170 167 163 161 158 155 153 151 149 149 149 149 149 149 150 155 159 163 165 167 167 164 159 160 163 167 173 173 173 174 178 181 187 193 195 196 200 208 217 216 217 217 218 219 219 218 212 182
157 160 162 164 168 174 178 180 179 178 177 175 175 175 174 172 172 173 174 173 172 170 167 163 161 160 159 159 155 151 148 148 149 150 151 153 157 160 162 163 164 161 154 149 151 154 159 164 166 167 168 171 175 181 186 186 188 195 205 214 220 224 225 223 219 213 193 145 120
154 157 159 162 167 169 171 172 172 172 172 173 173 173 172 171 172 173 173 172 171 169 167 163 159 161 164 166 161 155 151 151 151 154 158 161 164 164 163 161 157 147 139 139 144 147 151 156 158 157 155 157 166 173 178 181 187 192 196 190 192 186 142 110 87 77 75 79 88
151 154 158 162 163 164 164 164 164 164 165 167 168 169 170 169 170 171 172 171 170 168 164 159 158 162 168 170 168 165 161 159 157 159 162 166 166 166 163 156 149 138 132 134 137 141 145 151 155 153 148 140 153 166 173 173 169 154 118 88 78 73 72 75 69 62 58 61 71
151 155 157 157 157 157 157 157 156 156 157 159 162 164 165 166 167 168 169 170 168 164 159 157 160 164 169 172 172 171 169 165 162 160 160 160 158 157 153 146 139 131 127 128 130 133 137 144 150 152 149 136 139 150 144 109 92 86 80 70 63 61 61 64 59 55 53 57 63
151 152 150 148 148 149 150 150 150 150 151 152 156 158 159 159 159 160 161 163 161 158 156 157 160 163 167 171 172 171 167 161 157 154 152 151 146 139 130 122 119 117 118 122 124 125 127 129 131 131 127 115 102 103 100 84 79 76 73 68 61 57 55 56 54 51 50 51 54
147 145 141 138 138 139 141 143 144 145 145 147 148 148 148 147 146 147 149 152 157 160 161 160 161 163 165 168 167 164 159 153 149 144 138 129 118 107 97 89 87 86 96 114 118 118 116 113 109 104 100 95 92 93 93 90 84 78 72 66 61 58 55 54 52 50 49 50 53
141 138 134 131 131 132 134 136 138 138 138 138 137 136 134 132 126 119 111 106 122 137 144 143 143 146 150 149 134 128 129 129 126 118 107 97 91 85 80 74 63 53 67 105 114 115 112 109 105 102 98 95 95 94 92 88 84 80 75 70 64 60 56 54 50 47 46 47 53
138 134 130 128 127 127 128 129 131 131 131 129 125 118 111 104 97 89 81 75 78 80 80 76 74 75 77 78 71 74 81 88 92 91 88 85 83 79 75 68 58 49 57 97 113 115 113 111 109 106 103 100 98 95 92 88 85 82 79 74 67 61 56 53 49 45 43 43 51
137 133 129 127 125 124 124 124 126 127 124 117 107 99 93 88 87 86 84 82 81 80 78 76 73 71 69 66 64 65 70 78 83 84 84 83 82 79 75 68 57 48 50 79 107 114 115 114 111 108 105 101 99 96 93 91 87 83 79 75 69 63 57 53 50 46 43 43 50
136 132 129 126 124 123 123 124 123 119 111 99 93 90 88 88 86 85 84 83 83 81 79 77 74 72 70 67 64 62 62 68 75 77 78 76 77 77 74 68 57 47 45 58 89 106 112 113 111 107 104 102 101 99 96 93 88 82 75 71 69 66 63 59 55 51 48 47 51
134 131 128 126 125 125 124 123 115 106 98 91 89 88 87 86 85 83 82 82 84 84 82 80 77 74 72 70 67 62 57 57 62 65 67 67 68 70 71 67 58 49 44 47 66 85 100 105 105 104 103 104 103 101 98 93 88 84 79 75 73 70 67 64 60 56 54 52 54
132 130 128 127 126 126 124 118 106 98 94 92 90 88 86 85 84 83 82 82 84 85 85 82 79 76 74 72 69 64 59 55 56 58 59 60 60 63 66 67 59 51 46 45 54 67 81 92 95 98 100 103 103 101 97 94 91 89 87 84 80 75 71 68 65 62 59 57 57
132 131 129 128 128 126 120 109 100 96 94 93 91 88 86 86 87 87 86 85 86 85 85 83 80 78 75 72 70 67 63 58 56 56 58 58 58 59 61 64 60 54 49 46 51 59 70 81 88 93 96 99 100 100 99 97 95 93 91 88 85 81 76 72 70 67 64 61 60
134 133 131 130 126 118 108 99 95 94 94 92 90 89 88 88 88 89 89 89 88 86 85 83 81 78 75 72 71 69 67 63 59 57 57 57 57 56 57 60 59 56 52 49 51 56 63 72 79 86 92 97 99 100 100 100 98 96 94 92 90 87 84 79 75 72 69 66 64